When you browse on this site, cookies collect data to enhance your experience and personalize the content and advertising you see.
Visit our Privacy Policy to learn more. By continuing to use the site, you agree to this use of cookies and data.
  • In Österreich
  • Länderverzeichnis
  • Für 7 Tage
  • Wassertemperatur
  • Wetterkarte
  • News
  • Widgets
  • user-avatar
    Anmelden

    Stündliche Wetter Stavys'ke

    Heute, 27 Januar, Montag

    Zeit Temperatur Niederschläge Wind Luftdruck Luftfeuchtigkeit
    00:00 -1°C° 0 mm 2 m/S 755 mmHg 92%
    01:00 -1°C° 0 mm 2 m/S 754 mmHg 92%
    02:00 -1°C° 0 mm 2 m/S 754 mmHg 92%
    03:00 -1°C° 0 mm 2 m/S 754 mmHg 92%
    04:00 -1°C° 0 mm 2 m/S 753 mmHg 93%
    05:00 -1°C° 0 mm 2 m/S 753 mmHg 93%
    06:00 -1°C° 0 mm 2 m/S 753 mmHg 93%
    07:00 -1°C° 0 mm 2 m/S 753 mmHg 94%
    08:00 -1°C° 0 mm 2 m/S 753 mmHg 94%
    09:00 +1°C° 0 mm 2 m/S 753 mmHg 89%
    10:00 +1°C° 0 mm 2 m/S 753 mmHg 84%
    11:00 +2°C° 0 mm 2 m/S 753 mmHg 79%
    12:00 +2°C° 0 mm 2 m/S 753 mmHg 77%
    13:00 +2°C° 0 mm 2 m/S 752 mmHg 75%
    14:00 +3°C° 0 mm 2 m/S 752 mmHg 73%
    15:00 +2°C° 0 mm 2 m/S 752 mmHg 76%
    16:00 +1°C° 0 mm 2 m/S 751 mmHg 80%
    17:00 +1°C° 0 mm 2 m/S 751 mmHg 84%
    18:00 -1°C° 0 mm 2 m/S 751 mmHg 85%
    19:00 -1°C° 0 mm 2 m/S 751 mmHg 86%
    20:00 -1°C° 0 mm 2 m/S 751 mmHg 86%
    21:00 -1°C° 0 mm 2 m/S 751 mmHg 87%
    22:00 -1°C° 0 mm 2 m/S 750 mmHg 88%
    23:00 -1°C° 0 mm 2 m/S 750 mmHg 89%

    Morgen, 28 Januar, Dienstag

    Zeit Temperatur Niederschläge Wind Luftdruck Luftfeuchtigkeit
    00:00 -1°C° 0 mm 2 m/S 750 mmHg 89%
    01:00 -1°C° 0 mm 2 m/S 750 mmHg 89%
    02:00 -1°C° 0 mm 2 m/S 750 mmHg 89%
    03:00 -1°C° 0 mm 2 m/S 750 mmHg 89%
    04:00 -1°C° 0 mm 2 m/S 749 mmHg 89%
    05:00 +1°C° 0 mm 1 m/S 749 mmHg 89%
    06:00 +1°C° 0 mm 1 m/S 749 mmHg 89%
    07:00 -1°C° 0 mm 2 m/S 749 mmHg 89%
    08:00 -1°C° 0 mm 2 m/S 749 mmHg 89%
    09:00 +1°C° 0 mm 2 m/S 749 mmHg 86%
    10:00 +2°C° 0 mm 2 m/S 749 mmHg 84%
    11:00 +2°C° 0 mm 2 m/S 748 mmHg 81%
    12:00 +3°C° 0 mm 2 m/S 748 mmHg 80%
    13:00 +3°C° 0 mm 2 m/S 748 mmHg 79%
    14:00 +4°C° 0 mm 2 m/S 747 mmHg 79%
    15:00 +3°C° 0 mm 2 m/S 747 mmHg 82%
    16:00 +2°C° 0 mm 2 m/S 747 mmHg 86%
    17:00 0°C° 0 mm 3 m/S 747 mmHg 90%
    18:00 0°C° 0 mm 3 m/S 747 mmHg 90%
    19:00 0°C° 0 mm 3 m/S 746 mmHg 90%
    20:00 0°C° 0 mm 3 m/S 746 mmHg 90%
    21:00 -1°C° 0 mm 3 m/S 746 mmHg 91%
    22:00 -1°C° 0 mm 3 m/S 745 mmHg 92%
    23:00 -1°C° 0 mm 3 m/S 745 mmHg 93%

    übermorgen, 29 Januar, Mittwoch

    Zeit Temperatur Niederschläge Wind Luftdruck Luftfeuchtigkeit
    00:00 -1°C° 0 mm 4 m/S 745 mmHg 94%
    01:00 -1°C° 0 mm 4 m/S 744 mmHg 96%
    02:00 0°C° 0 mm 4 m/S 744 mmHg 97%
    03:00 0°C° 0.1 mm 4 m/S 743 mmHg 97%
    04:00 0°C° 0.1 mm 4 m/S 742 mmHg 97%
    05:00 0°C° 0.1 mm 5 m/S 741 mmHg 97%
    06:00 +1°C° 0.1 mm 5 m/S 741 mmHg 97%
    07:00 +1°C° 0.1 mm 5 m/S 740 mmHg 96%
    08:00 +1°C° 0.1 mm 5 m/S 740 mmHg 95%
    09:00 +1°C° 0.3 mm 5 m/S 739 mmHg 95%
    10:00 +1°C° 0.3 mm 6 m/S 739 mmHg 95%
    11:00 +2°C° 0.3 mm 6 m/S 738 mmHg 95%
    12:00 +2°C° 0.2 mm 5 m/S 737 mmHg 95%
    13:00 +2°C° 0.2 mm 5 m/S 737 mmHg 94%
    14:00 +3°C° 0.2 mm 4 m/S 736 mmHg 94%
    15:00 +3°C° 0.2 mm 4 m/S 736 mmHg 95%
    16:00 +3°C° 0.2 mm 4 m/S 736 mmHg 95%
    17:00 +3°C° 0.2 mm 3 m/S 735 mmHg 96%
    18:00 +1°C° 1.1 mm 4 m/S 735 mmHg 96%
    19:00 +1°C° 1.1 mm 5 m/S 735 mmHg 97%
    20:00 0°C° 1.1 mm 5 m/S 735 mmHg 97%
    21:00 -1°C° 0.9 mm 6 m/S 735 mmHg 97%
    22:00 -2°C° 0.9 mm 7 m/S 735 mmHg 97%
    23:00 -2°C° 0.9 mm 8 m/S 735 mmHg 97%

    30 Januar, Donnerstag

    Zeit Temperatur Niederschläge Wind Luftdruck Luftfeuchtigkeit
    00:00 -4°C° 1.1 mm 8 m/S 735 mmHg 97%
    01:00 -4°C° 1.1 mm 9 m/S 735 mmHg 97%
    02:00 -4°C° 1.1 mm 9 m/S 735 mmHg 97%
    03:00 -4°C° 0.9 mm 9 m/S 735 mmHg 97%
    04:00 -4°C° 0.9 mm 9 m/S 735 mmHg 97%
    05:00 -4°C° 0.9 mm 9 m/S 735 mmHg 97%
    06:00 -4°C° 0.7 mm 9 m/S 736 mmHg 97%
    07:00 -4°C° 0.7 mm 9 m/S 736 mmHg 97%
    08:00 -4°C° 0.7 mm 9 m/S 736 mmHg 97%
    09:00 -4°C° 0.6 mm 9 m/S 736 mmHg 97%
    10:00 -4°C° 0.6 mm 9 m/S 736 mmHg 97%
    11:00 -4°C° 0.6 mm 9 m/S 737 mmHg 97%
    12:00 -4°C° 0.5 mm 9 m/S 737 mmHg 97%
    13:00 -4°C° 0.5 mm 9 m/S 737 mmHg 97%
    14:00 -4°C° 0.5 mm 9 m/S 737 mmHg 97%
    15:00 -4°C° 0.8 mm 9 m/S 738 mmHg 97%
    16:00 -3°C° 0.8 mm 9 m/S 738 mmHg 97%
    17:00 -2°C° 0.8 mm 8 m/S 738 mmHg 97%
    18:00 -2°C° 0.6 mm 8 m/S 739 mmHg 97%
    19:00 -2°C° 0.6 mm 8 m/S 739 mmHg 97%
    20:00 -2°C° 0.6 mm 8 m/S 740 mmHg 98%
    21:00 -2°C° 0.1 mm 8 m/S 740 mmHg 97%
    22:00 -2°C° 0.1 mm 8 m/S 741 mmHg 97%
    23:00 -2°C° 0.1 mm 8 m/S 741 mmHg 96%

    31 Januar, Freitag

    Zeit Temperatur Niederschläge Wind Luftdruck Luftfeuchtigkeit
    00:00 -2°C° 0 mm 7 m/S 742 mmHg 96%
    01:00 -2°C° 0 mm 7 m/S 742 mmHg 96%
    02:00 -2°C° 0 mm 7 m/S 743 mmHg 95%
    03:00 -2°C° 0 mm 6 m/S 743 mmHg 93%
    04:00 -2°C° 0 mm 6 m/S 743 mmHg 91%
    05:00 -2°C° 0 mm 6 m/S 744 mmHg 88%
    06:00 -2°C° 0 mm 6 m/S 744 mmHg 89%
    07:00 -1°C° 0 mm 5 m/S 744 mmHg 90%
    08:00 -2°C° 0 mm 5 m/S 744 mmHg 91%
    09:00 -2°C° 0 mm 5 m/S 745 mmHg 90%
    10:00 -2°C° 0 mm 5 m/S 745 mmHg 90%
    11:00 -1°C° 0 mm 5 m/S 745 mmHg 89%
    12:00 -1°C° 0 mm 4 m/S 745 mmHg 88%
    13:00 -1°C° 0 mm 4 m/S 744 mmHg 87%
    14:00 -1°C° 0 mm 4 m/S 744 mmHg 86%
    15:00 0°C° 0 mm 3 m/S 744 mmHg 89%
    16:00 -1°C° 0 mm 3 m/S 744 mmHg 93%
    17:00 -1°C° 0 mm 3 m/S 744 mmHg 97%
    18:00 -1°C° 0.1 mm 3 m/S 744 mmHg 97%
    19:00 -1°C° 0.1 mm 3 m/S 744 mmHg 97%
    20:00 0°C° 0.1 mm 3 m/S 744 mmHg 97%
    21:00 0°C° 0 mm 3 m/S 744 mmHg 98%
    22:00 0°C° 0 mm 3 m/S 745 mmHg 98%
    23:00 +1°C° 0 mm 2 m/S 745 mmHg 98%

    1 Februar, Samstag

    Zeit Temperatur Niederschläge Wind Luftdruck Luftfeuchtigkeit
    00:00 +1°C° 0 mm 2 m/S 745 mmHg 98%
    01:00 0°C° 0 mm 3 m/S 745 mmHg 98%
    02:00 0°C° 0 mm 3 m/S 745 mmHg 98%
    03:00 0°C° 0 mm 3 m/S 746 mmHg 98%
    04:00 0°C° 0 mm 3 m/S 746 mmHg 98%
    05:00 0°C° 0 mm 3 m/S 746 mmHg 98%
    06:00 0°C° 0 mm 3 m/S 746 mmHg 98%
    07:00 0°C° 0 mm 3 m/S 746 mmHg 98%
    08:00 0°C° 0 mm 3 m/S 747 mmHg 98%
    09:00 -1°C° 0 mm 4 m/S 747 mmHg 98%
    10:00 0°C° 0 mm 4 m/S 748 mmHg 97%
    11:00 0°C° 0 mm 4 m/S 748 mmHg 97%
    12:00 0°C° 0 mm 4 m/S 748 mmHg 94%
    13:00 0°C° 0 mm 4 m/S 748 mmHg 91%
    14:00 +1°C° 0 mm 4 m/S 747 mmHg 89%
    15:00 0°C° 0 mm 4 m/S 747 mmHg 89%
    16:00 0°C° 0 mm 4 m/S 747 mmHg 89%
    17:00 0°C° 0 mm 4 m/S 747 mmHg 89%
    18:00 0°C° 0.1 mm 4 m/S 747 mmHg 90%
    19:00 0°C° 0.1 mm 4 m/S 747 mmHg 92%
    20:00 +1°C° 0.1 mm 4 m/S 747 mmHg 93%
    21:00 +1°C° 0 mm 4 m/S 747 mmHg 94%
    22:00 +1°C° 0 mm 4 m/S 747 mmHg 94%
    23:00 +1°C° 0 mm 4 m/S 747 mmHg 94%
    Mehr zeigen